This is the latest recevied weather packets stored in our database for station/object N6RDS-8. If no packets are shown the sender has not sent any weather packets the latest 10 day(s).
| Time | Temp. | Humidity | Pressure | Rain* | Wind** | Luminosity | Snow |
|---|---|---|---|---|---|---|---|
| 1778120705 | 18.33° C | 30% | 1018.1 hPa | 0 mm | - | 0 W/m² | - |
| 1778120400 | 18.89° C | 29% | 1017.9 hPa | 0 mm | - | 0 W/m² | - |
| 1778120096 | 20° C | 29% | 1017.9 hPa | 0 mm | - | 1 W/m² | - |
| 1778119793 | 20.56° C | 28% | 1017.8 hPa | 0 mm | - | 2 W/m² | - |
| 1778119490 | 21.11° C | 27% | 1017.7 hPa | 0 mm | - | 3 W/m² | - |
| 1778119187 | 21.67° C | 26% | 1017.9 hPa | 0 mm | - | 5 W/m² | - |
| 1778118885 | 22.22° C | 26% | 1017.6 hPa | 0 mm | - | 8 W/m² | - |
| 1778118582 | 22.22° C | 25% | 1017.7 hPa | 0 mm | - | 11 W/m² | - |
| 1778118278 | 22.22° C | 25% | 1017.6 hPa | 0 mm | - | 13 W/m² | - |
| 1778117975 | 22.78° C | 25% | 1017.8 hPa | 0 mm | - | 16 W/m² | - |
| 1778117672 | 22.78° C | 25% | 1017.8 hPa | 0 mm | - | 18 W/m² | - |
| 1778117369 | 22.78° C | 25% | 1017.7 hPa | 0 mm | - | 21 W/m² | - |
| 1778117066 | 22.78° C | 24% | 1017.7 hPa | 0 mm | - | 24 W/m² | - |
| 1778116757 | 23.33° C | 24% | 1017.6 hPa | 0 mm | - | 25 W/m² | - |
| 1778116455 | 23.33° C | 24% | 1017.8 hPa | 0 mm | - | 29 W/m² | - |
| 1778116153 | 23.33° C | 23% | 1017.7 hPa | 0 mm | - | 32 W/m² | - |
| 1778115849 | 23.89° C | 24% | 1017.9 hPa | 0 mm | - | 38 W/m² | - |
| 1778115546 | 23.89° C | 23% | 1017.7 hPa | 0 mm | - | 46 W/m² | - |
| 1778115243 | 23.89° C | 23% | 1017.7 hPa | 0 mm | - | 107 W/m² | - |
| 1778114940 | 24.44° C | 23% | 1017.7 hPa | 0 mm | - | 105 W/m² | - |
| 1778114637 | 23.89° C | 22% | 1017.7 hPa | 0 mm | - | 132 W/m² | - |
| 1778114334 | 23.89° C | 22% | 1017.5 hPa | 0 mm | - | 146 W/m² | - |
| 1778114029 | 24.44° C | 22% | 1017.4 hPa | 0 mm | - | 159 W/m² | - |
| 1778113725 | 25° C | 21% | 1017.6 hPa | 0 mm | - | 173 W/m² | - |
| 1778113421 | 25° C | 21% | 1017.6 hPa | 0 mm | - | 188 W/m² | - |
* Rain latest hour (hover to see other rain measurements)
** Current wind speed in m/s (hover to see current wind gust speed)